Location: Nairn
(57.5833°N, 3.8667°W)
Time: 19:40:55
(UTC+00:00)

UNK - Pass Details

Date: 09 December 2021
Orbit: 666 x 686 km, 98.2° (Epoch: 24 January)

Event Time Altitude Azimuth Distance (km) Brightness Sun altitude
Rises 16:18:03 0° 13° (NNE) 3,035 6.7 -5.8°
Reaches altitude 10° 16:20:23 10° 6° (N) 2,114 5.9 -6.0°
Maximum altitude 16:24:41 40° 298° (WNW) 989 4.9 -6.5°
Drops below altitude 10° 16:28:57 10° 229° (SW) 2,094 8.0 -7.0°
Sets 16:31:15 0° 222° (SW) 3,002 8.9 -7.2°
